Location: Caltech
(34.1382°N, 118.1253°W)
Time: 04:26:32
(UTC-07:00)

SL-08 R/B - Visible Passes

Search period start: 25 May 2015 00:00
Search period end: 04 June 2015 00:00
Orbit: 675 x 741 km, 98.2° (Epoch: 24 May)

Date Brightness Start Highest point End Pass type
(mag) Time Alt. Az. Time Alt. Az. Time Alt. Az.
25 May 3.7 02:48:01 58° ENE 02:48:01 58° ENE 02:52:32 10° N visible
25 May 5.4 04:27:01 10° W 04:27:01 10° W 04:27:15 10° WNW visible
26 May 5.7 01:54:01 15° E 01:54:53 16° ENE 01:57:46 10° NNE visible
26 May 3.8 03:33:01 41° WNW 03:33:01 41° WNW 03:36:55 10° NNW visible
27 May 4.1 02:39:01 46° E 02:39:09 46° ENE 02:43:40 10° N visible
27 May 5.2 04:18:01 13° W 04:18:01 13° W 04:19:40 10° WNW visible
28 May 5.9 01:45:01 12° E 01:46:11 13° ENE 01:48:23 10° NE visible
28 May 3.5 03:24:01 53° W 03:24:01 53° W 03:28:16 10° NNW visible
29 May 4.4 02:30:01 36° E 02:30:25 37° ENE 02:34:46 10° N visible
29 May 4.9 04:09:02 17° W 04:09:02 17° W 04:11:32 10° NW visible
30 May 6.1 01:37:02 10° ENE 01:37:30 10° ENE 01:38:17 10° NE visible
30 May 3.2 03:15:01 69° W 03:15:01 69° W 03:19:35 10° NNW visible
31 May 4.8 02:21:02 29° E 02:21:40 30° ENE 02:25:50 10° N visible
31 May 4.7 04:00:02 22° W 04:00:02 22° W 04:03:12 10° NW visible
01 Jun 3.1 03:06:03 87° WSW 03:06:03 87° WSW 03:10:50 10° NNW visible
02 Jun 5.1 02:12:03 23° E 02:12:56 25° ENE 02:16:50 10° NNE visible
02 Jun 4.4 03:51:04 27° W 03:51:04 27° W 03:54:45 10° NW visible
03 Jun 3.3 02:57:04 74° ESE 02:57:17 75° ENE 03:02:04 10° N visible
